STARLINK-32400, 61669

Orbit data source: Space-Track

STARLINK-32400, 61669 is a payload satellite owned by SpaceX/Seattle (US) in LEO that was launched on Sat, 26 Oct 2024 UTC via an FALCON 9 launch vehicle from the Air Force Eastern Test Range (AFETR). Payload-class satellites include a variety of spacecraft equipped with specific instruments for various scientific and technological missions. These include communications satellites like Starlink; space stations such as the ISS; scientific satellites like the Hubble; Earth observation satellites from companies like Planet Labs, Umbra, and HawkEye 360; GPS; miniature CubeSats for education and research; and military/defense satellites.

Loading next visibility...
Identifier
61669, 2024-193J
Orbit
LEO
Country
Flag of USUS
Related business
Manufacturer
SpaceX/Seattle
Mission
Operational Commercial Communications
Bus & Motor
STARLINK V2M, Unknown motor
Mass
730 kg wet, ~700 kg dry
Launch date (UTC)
2024-10-26 (10 months ago)
Launch vehicle
FALCON 9
Launch site
Air Force Eastern Test Range (AFETR)
Object type
Payload
Rocket body
Debris
Shape & HBR
Box + 2 Pan, 14.5 m
Radar Cross Section
36.964 m², Large (>1 m²)

Expand to show TLE details & history
Last TLE update: 13 hours ago

TLE from 13 hours ago
0 STARLINK-32400
1 61669U 24193J   25243.39988996  .00000762  00000-0  37852-4 0  9998
2 61669  53.1583 252.6676 0001038  93.5583 266.5536 15.30195311 47423
Epoch: 2025-08-31T09:35Z
TLE epoch observation values (Epoch: 2025-08-31T09:35:50.492Z)
Latitude
-0.00006°
Longitude
128.88679°
Altitude
476.171 km
Speed
7.629 km/s
True Right ascension
16h 50m 40s
True Declination
0° 00' 00"
Sunlit
Object was in daylight at epoch
Visualization orbit readout
Latitude
Unknown
Longitude
Unknown
Altitude
Unknown
Speed
Unknown
Apparent Right ascension
Unknown
Apparent Declination
Unknown
Sunlit
N/A
Visualization observer readout
Local Sidereal Time
14:08:56
Azimuth
Unknown
Elevation
Unknown
Doppler factor
Unknown
Orbital elements
Apogee altitude
476.197 km
Perigee altitude
474.774 km
Semi-major axis
6,853.623 km
Eccentricity
0.0001
Inclination
53.1583°
RAAN
252.6676°
Arg. of periapsis
93.5583°
True anomaly
266.54173°
Mean anomaly
266.5536°
Eccentric anomaly
266.54766°
Mean motion
3.82528 °/min
Orbital period
94.11 mins
BSTAR
0.000037852
Loading maneuver chart data...
Computing Atmospheric mass density...
Loading historical data...
Loading historical data...
Loading historical data...
Loading historical data...
Loading historical data...
Loading historical data...
Loading historical data...

Documentation

Showing up to 5 results
|